Location: Cahas Mountain Overlook
(37.0833°N, 80.1000°W)
Time: 20:04:06
(UTC-04:00)

Tiros 1 - Pass Details

Date: 09 February 2026
Orbit: 618 x 649 km, 48.4° (Epoch: 13 March)

Event Time Altitude Azimuth Distance (km) Brightness Sun altitude
Rises 18:32:11 0° 301° (WNW) 2,887 11.3 -8.2°
Reaches altitude 10° 18:34:31 10° 297° (WNW) 1,982 10.5 -8.6°
Maximum altitude 18:38:57 55° 220° (SW) 746 7.8 -9.5°
Drops below altitude 10° 18:43:25 10° 143° (SE) 1,988 9.4 -10.4°
Sets 18:45:46 0° 139° (SE) 2,897 10.2 -10.8°
